Photometre #843[NE_1.6_Dp] Camborne_MO AOT

File : 20220921_843.hum

21/09/2022,07:01:34,TEMP=12.8,BA=5.68,STAT.A,ExtBa=12.20
21/09/2022,07:04:23,TEMP=13.2,BA=5.68,STAT.D,ExtBa=12.20
21/09/2022,07:06:23,TEMP=13.6,BA=5.68,STAT.A,ExtBa=12.10
21/09/2022,07:10:18,TEMP=13.5,BA=5.68,STAT.A,ExtBa=12.20
21/09/2022,07:15:55,TEMP=13.7,BA=5.68,STAT.A,ExtBa=12.20
21/09/2022,07:20:23,TEMP=13.8,BA=5.68,STAT.D,ExtBa=12.10
21/09/2022,07:22:42,TEMP=14.2,BA=5.68,STAT.A,ExtBa=12.10
21/09/2022,07:28:23,TEMP=14.1,BA=5.68,STAT.D,ExtBa=12.10
21/09/2022,07:31:04,TEMP=14.5,BA=5.64,STAT.A,ExtBa=12.10
21/09/2022,07:36:23,TEMP=14.5,BA=5.64,STAT.D,ExtBa=12.10
21/09/2022,07:40:23,TEMP=14.8,BA=5.68,STAT.D,ExtBa=12.10
21/09/2022,07:42:30,TEMP=15.2,BA=5.68,STAT.B,ExtBa=12.10
21/09/2022,07:51:25,TEMP=15.8,BA=5.64,STAT.A,ExtBa=12.00
21/09/2022,07:54:10,TEMP=15.8,BA=5.64,STAT.A,ExtBa=12.10
21/09/2022,07:58:58,TEMP=15.8,BA=5.64,STAT.A,ExtBa=12.10
21/09/2022,08:04:24,TEMP=16.0,BA=5.64,STAT.D,ExtBa=12.10
21/09/2022,08:06:32,TEMP=16.5,BA=5.64,STAT.A,ExtBa=12.00
21/09/2022,08:12:23,TEMP=16.4,BA=5.68,STAT.D,ExtBa=12.10
21/09/2022,08:14:52,TEMP=16.7,BA=5.68,STAT.C,ExtBa=12.10
21/09/2022,08:24:13,TEMP=17.5,BA=5.56,STAT.b=17.0
21/09/2022,08:25:07,TEMP=17.5,BA=5.56,STAT.A,ExtBa=12.10
21/09/2022,08:28:23,TEMP=17.4,BA=5.56,STAT.D,ExtBa=12.10
21/09/2022,08:32:23,TEMP=17.4,BA=5.52,STAT.D,ExtBa=12.10
21/09/2022,08:36:24,TEMP=17.4,BA=5.52,STAT.D,ExtBa=12.10
21/09/2022,08:38:30,TEMP=17.8,BA=5.52,STAT.A,ExtBa=12.00
21/09/2022,08:44:24,TEMP=17.5,BA=5.60,STAT.D,ExtBa=12.10
21/09/2022,08:48:24,TEMP=17.6,BA=5.60,STAT.D,ExtBa=12.10
21/09/2022,08:51:06,TEMP=17.7,BA=5.64,STAT.A,ExtBa=12.10
21/09/2022,08:56:24,TEMP=17.6,BA=5.64,STAT.D,ExtBa=12.10
21/09/2022,09:00:24,TEMP=17.6,BA=5.68,STAT.D,ExtBa=12.10
21/09/2022,09:04:24,TEMP=17.7,BA=5.68,STAT.D,ExtBa=12.10
21/09/2022,09:08:24,TEMP=17.8,BA=5.68,STAT.D,ExtBa=12.10
21/09/2022,09:10:29,TEMP=18.2,BA=5.64,STAT.A,ExtBa=12.10
21/09/2022,09:15:10,TEMP=18.0,BA=5.64,STAT.F,ExtBa=12.10
21/09/2022,09:24:53,TEMP=18.9,BA=5.60,STAT.b=17.0
21/09/2022,09:30:26,TEMP=18.4,BA=5.56,STAT.D,ExtBa=12.10
21/09/2022,09:36:24,TEMP=18.5,BA=5.56,STAT.D,ExtBa=12.10
21/09/2022,09:40:24,TEMP=18.6,BA=5.68,STAT.D,ExtBa=12.10
21/09/2022,09:44:24,TEMP=18.8,BA=5.68,STAT.D,ExtBa=12.10
21/09/2022,09:46:24,TEMP=19.2,BA=5.68,STAT.D,ExtBa=12.00
21/09/2022,09:52:24,TEMP=19.0,BA=5.68,STAT.D,ExtBa=12.10
21/09/2022,09:56:24,TEMP=19.1,BA=5.68,STAT.D,ExtBa=12.10
21/09/2022,10:00:09,TEMP=19.2,BA=5.64,STAT.D,ExtBa=12.10
21/09/2022,10:04:24,TEMP=19.3,BA=5.64,STAT.D,ExtBa=12.10
21/09/2022,10:08:24,TEMP=19.2,BA=5.64,STAT.D,ExtBa=12.10
21/09/2022,10:12:24,TEMP=19.2,BA=5.64,STAT.D,ExtBa=12.10
21/09/2022,10:15:11,TEMP=19.4,BA=5.64,STAT.F,ExtBa=12.10
21/09/2022,10:25:32,TEMP=19.7,BA=5.64,STAT.b=17.0
21/09/2022,10:30:25,TEMP=19.1,BA=5.64,STAT.D,ExtBa=12.10
21/09/2022,10:36:24,TEMP=19.0,BA=5.64,STAT.D,ExtBa=12.10
21/09/2022,10:40:24,TEMP=19.2,BA=5.68,STAT.D,ExtBa=12.10
21/09/2022,10:44:24,TEMP=19.3,BA=5.68,STAT.D,ExtBa=12.10
21/09/2022,10:46:24,TEMP=19.6,BA=5.68,STAT.D,ExtBa=12.00
21/09/2022,10:52:24,TEMP=19.3,BA=5.68,STAT.D,ExtBa=12.10
21/09/2022,10:56:24,TEMP=19.4,BA=5.68,STAT.D,ExtBa=12.10
21/09/2022,11:00:09,TEMP=19.4,BA=5.64,STAT.D,ExtBa=12.10
21/09/2022,11:04:24,TEMP=19.5,BA=5.64,STAT.D,ExtBa=12.10
21/09/2022,11:08:24,TEMP=19.4,BA=5.64,STAT.D,ExtBa=12.10
21/09/2022,11:12:24,TEMP=19.4,BA=5.64,STAT.D,ExtBa=12.10
21/09/2022,11:15:11,TEMP=19.5,BA=5.64,STAT.F,ExtBa=12.10
21/09/2022,11:40:42,TEMP=20.7,BA=5.64,STAT.D,ExtBa=12.00
21/09/2022,11:44:24,TEMP=20.5,BA=5.64,STAT.D,ExtBa=12.00
21/09/2022,11:46:23,TEMP=20.8,BA=5.64,STAT.D,ExtBa=12.00
21/09/2022,11:52:24,TEMP=20.2,BA=5.68,STAT.D,ExtBa=12.00
21/09/2022,11:56:24,TEMP=20.2,BA=5.68,STAT.D,ExtBa=12.00
21/09/2022,12:00:09,TEMP=20.2,BA=5.64,STAT.D,ExtBa=12.00
21/09/2022,12:04:24,TEMP=20.1,BA=5.64,STAT.D,ExtBa=12.00
21/09/2022,12:08:24,TEMP=20.1,BA=5.64,STAT.D,ExtBa=12.00
21/09/2022,12:12:24,TEMP=20.1,BA=5.68,STAT.D,ExtBa=12.00
21/09/2022,12:15:11,TEMP=20.3,BA=5.68,STAT.F,ExtBa=12.00
21/09/2022,12:40:40,TEMP=21.0,BA=5.48,STAT.D,ExtBa=12.00
21/09/2022,12:44:24,TEMP=20.5,BA=5.48,STAT.D,ExtBa=12.00
21/09/2022,12:46:24,TEMP=20.7,BA=5.48,STAT.D,ExtBa=12.00
21/09/2022,12:52:24,TEMP=20.2,BA=5.68,STAT.D,ExtBa=12.00
21/09/2022,12:56:24,TEMP=20.2,BA=5.68,STAT.D,ExtBa=12.00
21/09/2022,13:00:09,TEMP=20.1,BA=5.64,STAT.D,ExtBa=12.00
21/09/2022,13:04:24,TEMP=20.0,BA=5.64,STAT.D,ExtBa=12.00
21/09/2022,13:08:24,TEMP=20.0,BA=5.64,STAT.D,ExtBa=12.00
21/09/2022,13:12:24,TEMP=20.0,BA=5.68,STAT.D,ExtBa=12.00
21/09/2022,13:15:11,TEMP=20.3,BA=5.68,STAT.F,ExtBa=12.00
21/09/2022,13:40:22,TEMP=21.0,BA=5.68,STAT.D,ExtBa=12.00
21/09/2022,13:44:24,TEMP=20.5,BA=5.68,STAT.D,ExtBa=12.00
21/09/2022,13:46:21,TEMP=20.7,BA=5.68,STAT.D,ExtBa=12.00
21/09/2022,13:52:24,TEMP=20.3,BA=5.68,STAT.D,ExtBa=12.00
21/09/2022,13:56:24,TEMP=20.4,BA=5.68,STAT.D,ExtBa=12.00
21/09/2022,14:00:09,TEMP=20.3,BA=5.64,STAT.D,ExtBa=12.00
21/09/2022,14:04:24,TEMP=20.3,BA=5.64,STAT.D,ExtBa=12.00
21/09/2022,14:08:24,TEMP=20.3,BA=5.64,STAT.D,ExtBa=12.00
21/09/2022,14:12:24,TEMP=20.3,BA=5.68,STAT.D,ExtBa=12.00
21/09/2022,14:15:11,TEMP=20.3,BA=5.68,STAT.F,ExtBa=12.00
21/09/2022,14:40:02,TEMP=20.1,BA=5.64,STAT.D,ExtBa=12.00
21/09/2022,14:44:24,TEMP=19.4,BA=5.64,STAT.D,ExtBa=12.00
21/09/2022,14:46:23,TEMP=19.6,BA=5.64,STAT.D,ExtBa=12.00
21/09/2022,14:52:24,TEMP=18.9,BA=5.68,STAT.D,ExtBa=12.00
21/09/2022,14:56:24,TEMP=18.8,BA=5.68,STAT.D,ExtBa=12.00
21/09/2022,15:00:09,TEMP=18.8,BA=5.64,STAT.D,ExtBa=12.00
21/09/2022,15:04:24,TEMP=18.9,BA=5.64,STAT.D,ExtBa=12.00
21/09/2022,15:08:24,TEMP=19.1,BA=5.64,STAT.D,ExtBa=12.00
21/09/2022,15:12:24,TEMP=19.3,BA=5.64,STAT.D,ExtBa=12.00
21/09/2022,15:15:10,TEMP=19.6,BA=5.64,STAT.F,ExtBa=12.00
21/09/2022,15:39:50,TEMP=20.2,BA=5.64,STAT.A,ExtBa=12.00
21/09/2022,15:47:25,TEMP=19.5,BA=5.64,STAT.A,ExtBa=12.00
21/09/2022,15:52:24,TEMP=19.3,BA=5.68,STAT.D,ExtBa=12.00
21/09/2022,15:54:23,TEMP=19.7,BA=5.68,STAT.A,ExtBa=12.00
21/09/2022,16:00:23,TEMP=19.2,BA=5.68,STAT.D,ExtBa=12.00
21/09/2022,16:04:23,TEMP=19.3,BA=5.68,STAT.D,ExtBa=12.00
21/09/2022,16:06:23,TEMP=19.7,BA=5.68,STAT.A,ExtBa=12.00
21/09/2022,16:12:23,TEMP=19.2,BA=5.68,STAT.D,ExtBa=12.00
21/09/2022,16:15:28,TEMP=19.4,BA=5.68,STAT.C,ExtBa=12.00
21/09/2022,16:40:02,TEMP=19.5,BA=5.64,STAT.A,ExtBa=12.00
21/09/2022,16:43:20,TEMP=19.1,BA=5.64,STAT.A,ExtBa=12.00
21/09/2022,16:45:31,TEMP=19.2,BA=5.64,STAT.A,ExtBa=12.00
21/09/2022,16:47:39,TEMP=19.2,BA=5.64,STAT.A,ExtBa=12.00
21/09/2022,16:49:59,TEMP=19.1,BA=5.64,STAT.B,ExtBa=12.00
21/09/2022,16:59:53,TEMP=18.7,BA=5.16,STAT.A,ExtBa=12.00
21/09/2022,17:04:23,TEMP=18.2,BA=5.64,STAT.D,ExtBa=12.00
21/09/2022,17:07:38,TEMP=18.2,BA=5.64,STAT.A,ExtBa=12.00
21/09/2022,17:12:23,TEMP=18.0,BA=5.68,STAT.D,ExtBa=12.00
21/09/2022,17:14:33,TEMP=18.3,BA=5.68,STAT.A,ExtBa=12.00
21/09/2022,17:24:23,TEMP=17.8,BA=5.52,STAT.D,ExtBa=12.00
21/09/2022,17:26:32,TEMP=18.2,BA=5.52,STAT.A,ExtBa=12.00
21/09/2022,17:33:04,TEMP=17.6,BA=5.64,STAT.A,ExtBa=12.00